Flag for United Arab Emirates Weather past 2 weeks in Ras al-Khaimah, Ras al-Khaimah, United Arab Emirates

Now
64 °F

Clear.


Feels Like: 64 °F
Forecast: 64 / 79 °F
Wind: 7 mph from South

Location: Ras Al Khaimah International Airport

Current Time: Mar 5, 2015 at 4:47:55 AM

Latest Report: Mar 5, 2015 at 4:00 AM


Visibility: 10 mi

Pressure: 29.86 "Hg

Humidity: 73%

Dew point: 55 °F

Location of Ras al-KhaimahLocation

Historic Weather in Ras al-Khaimah — Graph

°F

Ras al-Khaimah temperature yesterday

Maximum temperature yesterday: 86 °F (at 2:00 PM)
Minimum temperature yesterday: 61 °F (at 3:00 AM)
Average temperature yesterday: 71 °F

Past Weeks' High & Low Weather Summary

 TemperatureHumidityPressure
High97 °F (Feb 19, 2:00 PM)88% (Feb 27, 5:00 AM)30.09 "Hg (Feb 27, 5:00 AM)
Low48 °F (Mar 1, 2:00 AM)8% (Feb 19, 2:00 PM)29.65 "Hg (Feb 21, 3:00 AM)
Average69 °F50%29.91 "Hg
* Reported Feb 18 3:00 AM — Mar 5 3:00 AM, Ras al-Khaimah, Weather by CustomWeather, © 2015

Note: Actual official high and low records may vary slightly from our data, if they occured in-between our weather recording intervals... More about our weather records

Advertising

Ras al-Khaimah weather history for previous 24 hours

 ConditionsComfort  
Time TempWeatherWind HumidityBarometerVisibility
3:00 AM
Thu, Mar 5
61 °FClear.7 mph83%29.86 "Hg10 mi
2:00 AM63 °FClear.6 mph77%29.89 "Hg10 mi
1:00 AM64 °FClear.6 mph78%29.89 "Hg10 mi
12:00 AM66 °FClear.5 mph78%29.92 "Hg10 mi
11:00 PM
Wed, Mar 4
66 °FClear.5 mph83%29.92 "Hg10 mi
10:00 PM70 °FClear.2 mph73%29.92 "Hg10 mi
9:00 PM70 °FClear.3 mph73%29.89 "Hg10 mi
8:00 PMN/AClear.3 mphN/AN/A10 mi
7:00 PM73 °FClear.No wind53%29.86 "Hg10 mi
6:00 PM77 °FSunny.8 mph47%29.86 "Hg10 mi
5:00 PM79 °FSunny.10 mph45%29.83 "Hg10 mi
4:00 PM82 °FSunny.12 mph30%29.83 "Hg10 mi
3:00 PM82 °FSunny.13 mph35%29.83 "Hg10 mi
2:00 PM86 °FSunny.16 mph22%29.86 "Hg10 mi
1:00 PM84 °FSunny.13 mph25%29.89 "Hg10 mi
12:00 PM82 °FSunny.8 mph40%29.92 "Hg10 mi
11:00 AM77 °FSunny.10 mph51%29.92 "Hg10 mi
10:00 AM73 °FSunny.10 mph65%29.95 "Hg10 mi
9:00 AM72 °FSunny.14 mph65%29.95 "Hg10 mi
8:00 AM66 °FSunny.12 mph78%29.92 "Hg10 mi
7:00 AM64 °FSunny.12 mph78%29.92 "Hg10 mi
6:00 AM63 °FClear.8 mph83%29.92 "Hg10 mi
5:00 AM63 °FClear.9 mph83%29.92 "Hg5 mi
4:00 AM63 °FClear.8 mph83%29.92 "Hg5 mi
Weather by CustomWeather, © 2015

See weather overviewHow to use our weather pages